Location: Cedar Brake
(32.2526°N, 97.8459°W)
Time: 17:25:14
(UTC+00:00)

Cosmos 2150 Rocket - Pass Details

Date: 22 April 2026
Orbit: 745 x 803 km, 74.0° (Epoch: 9 May)

Event Time Altitude Azimuth Distance (km) Brightness Sun altitude
Rises 02:54:18 0° 197° (SSW) 3,169 7.1 -22.0°
Reaches altitude 10° 02:56:38 10° 199° (SSW) 2,251 6.3 -22.4°
Maximum altitude 03:01:44 81° 286° (WNW) 761 3.9 -23.3°
Drops below altitude 10° 03:06:55 10° 14° (NNE) 2,284 6.7 -24.2°
Sets 03:09:18 0° 16° (NNE) 3,220 7.5 -24.6°
